Domov               UVHVVR             MKGP            O straneh              
ZDRAVSTVENO VARSTVO RASTLIN
  MREŽA AGROMET. POSTAJ
 ► PROGNOSTIČNA OBVESTILA
AGROMETEOROLOŠKI PODATKI -
ARSO
OBVLADOVANJE TVEGANJ ZARADI
NEUGODNIH VREMENSKIH RAZMER
  ► NARAVNE NESREČE
  ► SUŠA/MOČA
  ► NAMAKANJE
  ► ŽLED (gozdarstvo)
KARTOGRAFSKI PRIKAZI
SPLETNE POVEZAVE
PROJEKTI IN PUBLIKACIJE

AGROMETEOROLOŠKA MREŽA: VREMENSKE POSTAJE IN FENOLOŠKA OPAZOVANJA

Pregled podatkov za lokacijo Labor, meteorološka postaja 42414

Pregled senzorjev na lokaciji

ID Ime Zadnja
vrednost
Datum
zadnje
spremembe
Tip
senzorja
2099 Temperatura 2 m (°C) 5,72 °C 14.12.2017 06:30 50YA
2100 Relativna vlaga 2 m (% RH) 89,86 % RH 14.12.2017 06:30 50YA
2101 Omočenost lista (U) 6 U 14.12.2017 06:30 A730WET
2102 Padavine (mm) 0 mm 14.12.2017 06:30 Rain-O-Matic

Pregled podatkov zadnjih 24 ur

Zap.
št.
Datum in čas Labor
Omočenost
lista
Padavine Relativna
vlaga
2
m
Temperatura
2
m
0 14.12.2017 06:30 6 0 89,86 5,72
1 14.12.2017 06:00 4 0 87,15 5,61
2 14.12.2017 05:30 2 0 87,62 5,35
3 14.12.2017 05:00 1 0 90,84 5,05
4 14.12.2017 04:30 1 0 92,76 4,93
5 14.12.2017 04:00 2 0 93,83 4,91
6 14.12.2017 03:30 4 0 95,53 4,87
7 14.12.2017 03:00 4 0 95,29 4,83
8 14.12.2017 02:30 3 0 95,1 4,99
9 14.12.2017 02:00 1 0 94,6 5,09
10 14.12.2017 01:30 2 0 95,7 5,03
11 14.12.2017 01:00 2 0 95,1 4,88
12 14.12.2017 00:30 1 0 93,12 4,94
13 14.12.2017 00:00 1 0 92,92 4,75
14 13.12.2017 23:30 2 0 93,96 4,61
15 13.12.2017 23:00 1 0 94,59 4,55
16 13.12.2017 22:30 1 0 93,38 4,57
17 13.12.2017 22:00 1 0 91,91 4,77
18 13.12.2017 21:30 1 0 91,1 4,58
19 13.12.2017 21:00 1 0 89,04 4,7
20 13.12.2017 20:30 0 0 86,87 5,03
21 13.12.2017 20:00 0 0 87,84 4,83
22 13.12.2017 19:30 0 0 91,12 4,21
23 13.12.2017 19:00 0 0 89,11 4,37
24 13.12.2017 18:30 0 0 87,85 4,43
25 13.12.2017 18:00 0 0 88,23 4,49
26 13.12.2017 17:30 0 0 90,38 4,71
27 13.12.2017 17:00 3 0,4 91,61 4,85
28 13.12.2017 16:30 3 0,2 91,6 4,97
29 13.12.2017 16:00 2 0,4 95,64 4,52
30 13.12.2017 15:30 3 1,8 93,78 4,33
31 13.12.2017 15:00 4 0,6 91,76 4,39
32 13.12.2017 14:30 1 0 92,04 4,24
33 13.12.2017 14:00 0 0 93,67 4
34 13.12.2017 13:30 3 2,2 90,72 4,13
35 13.12.2017 13:00 4 3,2 89,69 4,23
36 13.12.2017 12:30 1 0,6 86,2 4,6
37 13.12.2017 12:00 0 0 89,81 4,31
38 13.12.2017 11:30 3 1,8 91,91 3,97
39 13.12.2017 11:00 4 3,4 91,4 4,19
40 13.12.2017 10:30 3 1,8 91,53 4,68
41 13.12.2017 10:00 6 3 87,2 5,84
42 13.12.2017 09:30 1 0 83,88 6,73
43 13.12.2017 09:00 0 0 87,46 6,45
44 13.12.2017 08:30 3 0 88,45 6,54
45 13.12.2017 08:00 4 0 89,62 6,7
46 13.12.2017 07:30 4 0,4 89,18 6,85
© 2011 Ministrstvo za kmetijstvo, gozdarstvo in prehrano. Vse pravice pridržane.